^^
Datos históricos de la estación: Murcia-Puente Tocinos
Diario Informe para Febrero 15, 2019 Unidades:  Ingés    Métrico   Ambas
Diario Semanal Mensual Anual
  Máxima: Mínima: Promedio:
Temperatura: 103.3 °F 75 °F 85.5 °F
Punto de rocio: 72.7 °F 53.8 °F 66.7 °F
Humedad: 86% 20% 60%
Velocidad viento: 14.5mph 0mph 6.3mph
Racha viento: 25.3mph - -
Viento- - Sur
Presión: 29.9 in 29.7 in -
Precipitación: 0 in    
 
 
Tabla de datos para Febrero 15, 2019
Hora Temperatura Punto de rocio Presión Viento Velocidad viento Racha viento Humedad Intensidad lluvia(por hora) Nubes
00:04 78.3 °F 70.3 °F 29.8 in NE 8.3 mph 13 mph 77% 0 in
00:14 78.1 °F 70.7 °F 29.8 in NE 8.1 mph 12.3 mph 78% 0 in
00:19 77.9 °F 70.5 °F 29.8 in NE 6.9 mph 10.4 mph 78% 0 in
00:24 77.9 °F 70.5 °F 29.8 in NE 6.9 mph 8.1 mph 78% 0 in
00:29 77.7 °F 70.3 °F 29.8 in Este 5.9 mph 7.4 mph 78% 0 in
00:34 77.7 °F 70.7 °F 29.8 in Este 5.9 mph 8.1 mph 79% 0 in
00:39 77.5 °F 70.5 °F 29.8 in NE 5.9 mph 9.2 mph 79% 0 in
00:44 77.5 °F 70.5 °F 29.8 in NE 5.9 mph 6.9 mph 79% 0 in
00:50 77.5 °F 70.5 °F 29.8 in NE 6 mph 9 mph 79% 0 in
00:59 77.4 °F 70.3 °F 29.8 in NE 6 mph 10 mph 79% 0 in
01:04 77.4 °F 70.3 °F 29.8 in NE 5.9 mph 6.2 mph 79% 0 in
01:14 77.4 °F 70.7 °F 29.8 in ENE 4.8 mph 8 mph 80% 0 in
01:24 77.4 °F 70.7 °F 29.8 in NE 3.3 mph 5.8 mph 80% 0 in
01:30 77.4 °F 70.7 °F 29.8 in NE 3 mph 7 mph 80% 0 in
01:39 77.2 °F 70.5 °F 29.8 in NE 3.7 mph 7 mph 80% 0 in
01:45 77.2 °F 70.5 °F 29.8 in NE 5 mph 6 mph 80% 0 in
01:50 77.2 °F 70.5 °F 29.8 in NE 3 mph 5 mph 80% 0 in
01:59 77 °F 70.3 °F 29.8 in NE 3 mph 6 mph 80% 0 in
02:05 76.8 °F 70.5 °F 29.8 in NNE 3.1 mph 3.5 mph 81% 0 in
02:10 76.8 °F 70.5 °F 29.8 in NNE 2.9 mph 5.8 mph 81% 0 in
02:15 76.8 °F 70.5 °F 29.8 in NE 2 mph 6 mph 81% 0 in
02:20 76.8 °F 70.5 °F 29.8 in NE 3 mph 5 mph 81% 0 in
02:25 76.8 °F 70.5 °F 29.8 in NE 3 mph 6 mph 81% 0 in
02:30 76.8 °F 70.5 °F 29.8 in ENE 2 mph 6 mph 81% 0 in
02:39 76.8 °F 70.5 °F 29.8 in NE 2.4 mph 5 mph 81% 0 in
02:44 76.6 °F 70.3 °F 29.8 in NE 2.9 mph 3.5 mph 81% 0 in
02:49 76.6 °F 70.3 °F 29.8 in ENE 1.8 mph 3.5 mph 81% 0 in
02:59 76.6 °F 70.3 °F 29.8 in NE 2 mph 5 mph 81% 0 in
03:04 76.6 °F 70.7 °F 29.8 in NNO 2 mph 3.5 mph 82% 0 in
03:09 76.5 °F 70.5 °F 29.8 in NNO 2.4 mph 3.6 mph 82% 0 in
03:14 76.5 °F 70.5 °F 29.8 in NNO 2.4 mph 3.6 mph 82% 0 in
03:19 76.5 °F 70.5 °F 29.8 in NNO 2.9 mph 3.5 mph 82% 0 in
03:24 76.5 °F 70.5 °F 29.8 in NNO 2.9 mph 3.5 mph 82% 0 in
03:29 76.5 °F 70.5 °F 29.8 in NNO 2 mph 4.6 mph 82% 0 in
03:39 76.5 °F 70.5 °F 29.8 in NNO 1.9 mph 4 mph 82% 0 in
03:49 76.5 °F 70.9 °F 29.8 in NNO 1.7 mph 3 mph 83% 0 in
03:54 76.5 °F 70.9 °F 29.8 in NNO 1.4 mph 3.5 mph 83% 0 in
03:59 76.5 °F 70.9 °F 29.8 in NNO 1.8 mph 3.1 mph 83% 0 in
04:04 76.5 °F 70.5 °F 29.8 in NNO 1.8 mph 3.1 mph 82% 0 in
04:09 76.3 °F 70.7 °F 29.8 in NNO 2 mph 3.6 mph 83% 0 in
04:14 76.3 °F 70.7 °F 29.8 in NNO 2 mph 2.3 mph 83% 0 in
04:19 76.3 °F 70.7 °F 29.8 in NNO 1.4 mph 3.5 mph 83% 0 in
04:24 76.3 °F 70.7 °F 29.8 in NNO 1.4 mph 2.3 mph 83% 0 in
04:30 76.3 °F 70.7 °F 29.8 in NNO 1 mph 1 mph 83% 0 in
04:39 76.3 °F 70.7 °F 29.8 in NNO 0.5 mph   83% 0 in
04:45 76.3 °F 70.7 °F 29.8 in Calm     83% 0 in
04:54 76.3 °F 70.7 °F 29.8 in Calm   3.1 mph 83% 0 in
04:59 76.3 °F 71.1 °F 29.8 in NNO 1.4 mph 2.3 mph 84% 0 in
05:04 76.3 °F 71.1 °F 29.8 in NNO 1.4 mph 2.3 mph 84% 0 in
05:09 76.3 °F 71.1 °F 29.8 in NNO 1.4 mph 3.5 mph 84% 0 in
05:19 76.1 °F 70.7 °F 29.8 in NNO 1.5 mph 4 mph 83.5% 0 in
05:24 75.9 °F 70.7 °F 29.8 in NNO 2 mph   84% 0 in
05:29 75.9 °F 70.7 °F 29.8 in Calm   2.3 mph 84% 0 in
05:34 75.9 °F 70.7 °F 29.8 in Calm   4 mph 84% 0 in
05:44 75.9 °F 70.7 °F 29.8 in NO 1.9 mph 5 mph 84% 0 in
05:54 75.9 °F 70.7 °F 29.8 in NO 1.2 mph 3 mph 84% 0 in
05:59 75.9 °F 70.7 °F 29.8 in NO 1.4 mph 3.5 mph 84% 0 in
06:04 75.9 °F 70.7 °F 29.8 in NO 1.4 mph 2.3 mph 84% 0 in
06:09 75.9 °F 71.1 °F 29.8 in Calm     85% 0 in
06:14 75.9 °F 71.1 °F 29.8 in Calm     85% 0 in
06:19 75.9 °F 71.1 °F 29.8 in Calm   2.3 mph 85% 0 in
06:25 75.9 °F 71.1 °F 29.8 in Calm   3 mph 85% 0 in
06:34 75.9 °F 71.1 °F 29.8 in NO 1.2 mph 3 mph 85% 0 in
06:39 75.7 °F 71.2 °F 29.8 in NO 1.4 mph 2.9 mph 86% 0 in
06:44 75.7 °F 71.2 °F 29.8 in NO 1.4 mph 1.8 mph 86% 0 in
06:49 75.7 °F 70.9 °F 29.8 in ESE 1.4 mph 4.6 mph 85% 0 in
06:54 75.6 °F 70.7 °F 29.8 in ESE 1.4 mph 3.5 mph 85% 0 in
07:04 75.2 °F 70.3 °F 29.8 in ESE 2.2 mph 5 mph 85% 0 in
07:09 75 °F 70.2 °F 29.8 in ESE 2 mph 2.3 mph 85% 0 in
07:14 75 °F 70 °F 29.8 in ESE 2 mph 3.5 mph 84% 0 in
07:19 75 °F 70 °F 29.8 in ESE 2 mph 3.5 mph 84% 0 in
07:24 75 °F 70.2 °F 29.8 in ESE 2 mph 3.5 mph 85% 0 in
07:34 75.2 °F 70.3 °F 29.8 in ESE 1.9 mph 5 mph 85% 0 in
07:39 75.6 °F 70.7 °F 29.8 in ESE 2.4 mph 4.6 mph 85% 0 in
07:44 75.9 °F 71.1 °F 29.8 in ESE 2.4 mph 3.5 mph 85% 0 in
07:54 76.3 °F 71.2 °F 29.8 in ESE 2 mph 3 mph 84.5% 0 in
08:04 76.5 °F 71.1 °F 29.8 in ESE 1.9 mph 5 mph 83.5% 0 in
08:09 76.1 °F 70.9 °F 29.8 in ESE 2.9 mph 3.5 mph 84% 0 in
08:14 75.9 °F 70.7 °F 29.8 in ESE 2.9 mph 4.6 mph 84% 0 in
08:19 75.9 °F 70.7 °F 29.8 in Este 2 mph 2.4 mph 84% 0 in
08:29 76.3 °F 71.4 °F 29.8 in ENE 1.9 mph 5 mph 85% 0 in
08:39 76.5 °F 71.6 °F 29.8 in NNE 1.7 mph 5 mph 85% 0 in
08:44 76.6 °F 71.4 °F 29.8 in North 1.4 mph 2.3 mph 84% 0 in
08:49 76.6 °F 71.4 °F 29.8 in NNO 1.8 mph 3.5 mph 84% 0 in
08:54 76.6 °F 71.4 °F 29.8 in NNO 1.8 mph   84% 0 in
09:04 76.6 °F 71.4 °F 29.8 in NE 1.2 mph 4.6 mph 84% 0 in
09:09 76.6 °F 71.4 °F 29.8 in Este 2.9 mph 4.6 mph 84% 0 in
09:14 76.8 °F 71.6 °F 29.8 in ENE 2.9 mph 4.6 mph 84% 0 in
09:19 76.8 °F 71.6 °F 29.8 in ENE 2.4 mph 1.4 mph 84% 0 in
09:24 77.2 °F 71.6 °F 29.8 in ONO 2.4 mph 3.5 mph 83% 0 in
09:29 77.5 °F 71.6 °F 29.8 in ESE 1.4 mph 1.4 mph 82% 0 in
09:39 77.7 °F 71.2 °F 29.8 in SSO 1.9 mph 6 mph 80.5% 0 in
09:44 78.1 °F 71.4 °F 29.8 in SSO 2.9 mph 3.6 mph 80% 0 in
09:49 78.4 °F 71.4 °F 29.8 in SSE 2.4 mph 3.5 mph 79% 0 in
09:54 78.8 °F 71.4 °F 29.8 in SO 2.4 mph 2.3 mph 78% 0 in
09:59 79.3 °F 71.4 °F 29.8 in Oeste 2 mph 3.5 mph 77% 0 in
10:09 80.1 °F 71.6 °F 29.8 in Sur 2 mph 5 mph 75.5% 0 in
10:14 80.8 °F 71.8 °F 29.8 in Oeste 2 mph 4.6 mph 74% 0 in
10:19 80.8 °F 71.2 °F 29.8 in Oeste 2.9 mph 8.1 mph 73% 0 in
10:24 80.4 °F 71.1 °F 29.8 in ONO 2.9 mph 4.6 mph 73% 0 in
10:29 80.6 °F 70.7 °F 29.8 in ONO 4 mph 5.8 mph 72% 0 in
10:34 80.6 °F 70.7 °F 29.8 in SSE 4 mph 5.8 mph 72% 0 in
10:39 81.1 °F 70.3 °F 29.8 in Oeste 3.6 mph 4.6 mph 70% 0 in
10:44 81.3 °F 70.2 °F 29.8 in ONO 3.6 mph 5.8 mph 69% 0 in
10:49 81.9 °F 70.3 °F 29.8 in SO 3.1 mph 4.6 mph 68% 0 in
10:54 82 °F 70 °F 29.8 in Oeste 3.1 mph 5.8 mph 67% 0 in
10:59 82.6 °F 69.6 °F 29.8 in SO 3.1 mph 5.4 mph 65% 0 in
11:04 82.8 °F 68.9 °F 29.8 in Sur 3.1 mph 4.6 mph 63% 0 in
11:09 83.1 °F 68.7 °F 29.8 in OSO 3.1 mph 4.6 mph 62% 0 in
11:14 83.5 °F 68.5 °F 29.8 in SSE 3.1 mph 9.2 mph 61% 0 in
11:24 84 °F 69.1 °F 29.8 in SE 4.5 mph 6 mph 61% 0 in
11:29 84.6 °F 68.2 °F 29.8 in SSO 3.1 mph 5.2 mph 58% 0 in
11:34 84.7 °F 67.8 °F 29.8 in SO 3.1 mph 8.1 mph 57% 0 in
11:44 85.1 °F 68.4 °F 29.8 in SSO 4.5 mph 8.7 mph 57.5% 0 in
11:49 85.8 °F 68.4 °F 29.8 in OSO 4.7 mph 6.9 mph 56% 0 in
11:54 86.2 °F 68.2 °F 29.8 in SO 4.7 mph 10 mph 55% 0 in
11:59 86.2 °F 67.6 °F 29.8 in ESE 4.3 mph 5.8 mph 54% 0 in
12:09 86.5 °F 67.5 °F 29.8 in SSO 4.7 mph 8.5 mph 53% 0 in
12:14 86.9 °F 67.3 °F 29.8 in SSE 4.3 mph 8.1 mph 52% 0 in
12:19 87.3 °F 66.9 °F 29.8 in SSO 5.2 mph 6.9 mph 51% 0 in
12:24 87.8 °F 67.5 °F 29.8 in SSO 5.2 mph 5.2 mph 51% 0 in
12:29 88.5 °F 66.9 °F 29.8 in SSO 5.2 mph 9.2 mph 49% 0 in
12:34 88.9 °F 66.7 °F 29.8 in SSO 5.2 mph 8.1 mph 48% 0 in
12:39 89.1 °F 66.2 °F 29.8 in NO 5.9 mph 6.9 mph 47% 0 in
12:44 89.6 °F 66 °F 29.8 in OSO 5.9 mph 8.1 mph 46% 0 in
12:49 90.1 °F 65.3 °F 29.8 in SO 4 mph 5.2 mph 44% 0 in
12:54 90.5 °F 64.9 °F 29.8 in ENE 4 mph 3.5 mph 43% 0 in
12:59 91.2 °F 64.9 °F 29.8 in ONO 3.6 mph 5.8 mph 42% 0 in
13:04 91.6 °F 64.6 °F 29.8 in Sur 3.6 mph 3.6 mph 41% 0 in
13:09 91.9 °F 64.2 °F 29.8 in Oeste 4 mph 5.8 mph 40% 0 in
13:14 92.5 °F 64.6 °F 29.8 in SSE 4 mph 5.8 mph 40% 0 in
13:19 92.7 °F 64 °F 29.8 in ESE 3.6 mph 4.6 mph 39% 0 in
13:24 93 °F 64.4 °F 29.8 in NO 3.6 mph 3.6 mph 39% 0 in
13:29 93.7 °F 64.2 °F 29.8 in Este 3.1 mph 4.6 mph 38% 0 in
13:34 94.5 °F 63.3 °F 29.8 in SSO 3.1 mph 6.4 mph 36% 0 in
13:39 94.6 °F 62.8 °F 29.8 in SO 4 mph 6.9 mph 35% 0 in
13:44 94.8 °F 62.1 °F 29.8 in SSE 4 mph 2.3 mph 34% 0 in
13:49 95.4 °F 61.7 °F 29.8 in SSE 4 mph 8.1 mph 33% 0 in
13:54 95.9 °F 59.5 °F 29.8 in ONO 4 mph 5.9 mph 30% 0 in
13:59 96.4 °F 59 °F 29.8 in SSO 5.4 mph 16.1 mph 29% 0 in
14:09 97.3 °F 58.3 °F 29.7 in OSO 7 mph 15 mph 27.5% 0 in
14:14 98.4 °F 57.6 °F 29.7 in ONO 8.1 mph 10.4 mph 26% 0 in
14:19 99.1 °F 57 °F 29.7 in ONO 8.1 mph 16.1 mph 25% 0 in
14:24 99.1 °F 57 °F 29.7 in NNO 8.1 mph 18.4 mph 25% 0 in
14:29 99.1 °F 57 °F 29.7 in Oeste 7.6 mph 11.2 mph 25% 0 in
14:34 99 °F 55.9 °F 29.7 in Oeste 7.6 mph 16.1 mph 24% 0 in
14:39 99.3 °F 56.1 °F 29.7 in ONO 11.2 mph 17.3 mph 24% 0 in
14:44 99.1 °F 54.9 °F 29.7 in NO 11.2 mph 15 mph 23% 0 in
14:49 99.3 °F 56.1 °F 29.7 in ONO 8.7 mph 5.8 mph 24% 0 in
14:54 99.9 °F 55.4 °F 29.7 in Oeste 8.7 mph 15 mph 23% 0 in
14:59 100 °F 55.6 °F 29.7 in ONO 10 mph 16.1 mph 23% 0 in
15:04 100.2 °F 54.5 °F 29.7 in NO 10 mph 15 mph 22% 0 in
15:09 100.6 °F 54.9 °F 29.7 in ONO 10 mph 12.5 mph 22% 0 in
15:14 100.9 °F 55 °F 29.7 in Oeste 10 mph 14.7 mph 22% 0 in
15:19 101.3 °F 55.4 °F 29.7 in NO 9.2 mph 16.1 mph 22% 0 in
15:24 101.5 °F 54.3 °F 29.7 in NO 9.2 mph 11.5 mph 21% 0 in
15:29 101.1 °F 54 °F 29.7 in ONO 7.6 mph 19.7 mph 21% 0 in
15:34 100.9 °F 53.8 °F 29.7 in ONO 7.6 mph 11.5 mph 21% 0 in
15:39 101.3 °F 54.1 °F 29.7 in NNO 8.5 mph 12.7 mph 21% 0 in
15:44 101.7 °F 54.3 °F 29.7 in North 8.5 mph 15 mph 21% 0 in
15:49 101.8 °F 55.9 °F 29.7 in NO 9.2 mph 9.2 mph 22% 0 in
15:54 102.4 °F 55 °F 29.7 in ONO 9.2 mph 15 mph 21% 0 in
15:59 102.6 °F 55.2 °F 29.7 in NNO 6.2 mph 6.9 mph 21% 0 in
16:04 102.6 °F 55.2 °F 29.7 in NO 6.2 mph 11.5 mph 21% 0 in
16:09 102.7 °F 54 °F 29.7 in NO 6.9 mph 17.3 mph 20% 0 in
16:14 102.7 °F 55.2 °F 29.7 in NNO 6.9 mph 5.4 mph 21% 0 in
16:19 102.9 °F 54.1 °F 29.7 in NNE 6.2 mph 16.1 mph 20% 0 in
16:24 102.7 °F 54 °F 29.7 in ONO 6.2 mph 11.5 mph 20% 0 in
16:29 102.6 °F 55.2 °F 29.7 in NO 8.7 mph 16.3 mph 21% 0 in
16:34 102.7 °F 55.2 °F 29.7 in NO 8.7 mph 10.4 mph 21% 0 in
16:39 102.9 °F 55.6 °F 29.7 in NO 6.9 mph 11.5 mph 21% 0 in
16:44 102.9 °F 55.6 °F 29.7 in ONO 6.9 mph 12.7 mph 21% 0 in
16:49 103.3 °F 54.3 °F 29.7 in Oeste 7.6 mph 9.2 mph 20% 0 in
16:54 102.6 °F 56.5 °F 29.7 in Oeste 7.6 mph 8.1 mph 22% 0 in
16:59 101.5 °F 60.3 °F 29.7 in SE 6.4 mph 16.1 mph 26% 0 in
17:04 100.6 °F 60.4 °F 29.7 in ESE 6.4 mph 13.5 mph 27% 0 in
17:09 99.7 °F 60.8 °F 29.7 in ESE 9.2 mph 12.7 mph 28% 0 in
17:14 99.1 °F 60.3 °F 29.7 in SE 9.2 mph 11.5 mph 28% 0 in
17:19 99.3 °F 60.4 °F 29.7 in SO 6.4 mph 9.2 mph 28% 0 in
17:24 99.1 °F 60.3 °F 29.7 in ESE 6.4 mph 16.1 mph 28% 0 in
17:29 99 °F 59.2 °F 29.7 in Sur 7.6 mph 13.8 mph 27% 0 in
17:34 98.8 °F 59 °F 29.7 in Sur 7.6 mph 17.5 mph 27% 0 in
17:39 98.4 °F 57.6 °F 29.7 in SSE 10.2 mph 15.2 mph 26% 0 in
17:44 98.4 °F 57.6 °F 29.7 in SSE 10.2 mph 16.1 mph 26% 0 in
17:49 98.8 °F 59 °F 29.7 in SSE 10 mph 16.1 mph 27% 0 in
17:54 99.1 °F 59.4 °F 29.7 in SSO 10 mph 18.4 mph 27% 0 in
17:59 99.1 °F 59.4 °F 29.7 in SSE 9.2 mph 11.5 mph 27% 0 in
18:04 99.3 °F 59.4 °F 29.7 in SSE 9.2 mph 15 mph 27% 0 in
18:09 99.3 °F 59.4 °F 29.7 in SSE 10.2 mph 12.7 mph 27% 0 in
18:14 99.3 °F 58.5 °F 29.7 in Sur 10.2 mph 20.7 mph 26% 0 in
18:19 98.8 °F 59 °F 29.7 in ESE 12.3 mph 16.1 mph 27% 0 in
18:24 99 °F 59.2 °F 29.7 in ESE 12.3 mph 17.3 mph 27% 0 in
18:29 99.1 °F 58.3 °F 29.7 in SSE 11.2 mph 13.8 mph 26% 0 in
18:34 99.3 °F 58.5 °F 29.7 in SSE 11.2 mph 13.8 mph 26% 0 in
18:39 99.5 °F 58.5 °F 29.7 in SE 8.1 mph 12.7 mph 26% 0 in
18:44 99.3 °F 58.5 °F 29.7 in SO 8.1 mph 11.5 mph 26% 0 in
18:49 99.5 °F 58.5 °F 29.7 in SSE 8.5 mph 17.8 mph 26% 0 in
18:54 99 °F 58.1 °F 29.7 in SSE 8.5 mph 16.1 mph 26% 0 in
18:59 98.4 °F 57.6 °F 29.7 in SE 12.3 mph 17.3 mph 26% 0 in
19:04 98.2 °F 57.6 °F 29.7 in Sur 12.3 mph 17.5 mph 26% 0 in
19:09 98.2 °F 57.6 °F 29.7 in SSE 11.8 mph 15 mph 26% 0 in
19:14 98.2 °F 57.6 °F 29.7 in SE 11.8 mph 13.8 mph 26% 0 in
19:19 98.1 °F 57.4 °F 29.7 in Sur 8.7 mph 13.7 mph 26% 0 in
19:24 97.9 °F 57.2 °F 29.7 in Sur 8.7 mph 16.1 mph 26% 0 in
19:29 97.9 °F 57.2 °F 29.7 in SSE 9.2 mph 15.6 mph 26% 0 in
19:34 97.9 °F 57.2 °F 29.7 in ESE 9.2 mph 8.1 mph 26% 0 in
19:39 97.9 °F 63 °F 29.7 in NNE 6.4 mph 8.1 mph 32% 0 in
19:44 95.5 °F 67.5 °F 29.7 in NE 6.4 mph 15 mph 40% 0 in
19:49 91.8 °F 68 °F 29.7 in NNE 8.5 mph 22.5 mph 46% 0 in
19:54 89.2 °F 68.7 °F 29.7 in ENE 8.5 mph 17.3 mph 51% 0 in
19:59 88.3 °F 68.5 °F 29.7 in NNE 13 mph 13 mph 52% 0 in
20:04 88 °F 69.3 °F 29.7 in NNO 13 mph 17.3 mph 54% 0 in
20:09 87.3 °F 69.6 °F 29.7 in NE 11.4 mph 19.7 mph 56% 0 in
20:14 86.5 °F 70.5 °F 29.7 in North 11.4 mph 19.6 mph 59% 0 in
20:19 85.5 °F 70.5 °F 29.8 in NE 13.5 mph 18.4 mph 61% 0 in
20:24 84.6 °F 70.5 °F 29.8 in NNE 13.5 mph 17.3 mph 63% 0 in
20:29 84.4 °F 70.9 °F 29.8 in NE 13.5 mph 18.4 mph 64% 0 in
20:34 84 °F 71.1 °F 29.8 in NE 13.5 mph 19.6 mph 65% 0 in
20:39 83.8 °F 71.2 °F 29.8 in NNE 13.5 mph 18.4 mph 66% 0 in
20:44 83.7 °F 71.1 °F 29.8 in NE 13.5 mph 20.7 mph 66% 0 in
20:49 83.5 °F 71.4 °F 29.8 in ENE 12.5 mph 18.4 mph 67% 0 in
20:54 82.9 °F 71.2 °F 29.8 in NE 12.5 mph 20.7 mph 68% 0 in
20:59 82.8 °F 71.1 °F 29.8 in NE 13.5 mph 16.1 mph 68% 0 in
21:04 82.6 °F 70.9 °F 29.8 in NE 13.5 mph 23 mph 68% 0 in
21:09 82.4 °F 71.2 °F 29.8 in ENE 14 mph 17.3 mph 69% 0 in
21:14 82 °F 70.9 °F 29.8 in ENE 14 mph 20.7 mph 69% 0 in
21:19 81.9 °F 71.1 °F 29.8 in ENE 13 mph 23.7 mph 70% 0 in
21:24 81.3 °F 71.1 °F 29.8 in NE 13 mph 22.5 mph 71% 0 in
21:29 81.1 °F 71.2 °F 29.8 in NNE 14.5 mph 20.7 mph 72% 0 in
21:34 81 °F 71.4 °F 29.8 in NE 14.5 mph 23 mph 73% 0 in
21:39 80.6 °F 71.4 °F 29.8 in North 14 mph 17.3 mph 74% 0 in
21:44 80.4 °F 71.4 °F 29.8 in ENE 14 mph 25.3 mph 74% 0 in
21:49 80.2 °F 71.6 °F 29.8 in NE 14 mph 23 mph 75% 0 in
21:54 80.1 °F 71.8 °F 29.8 in NNE 14 mph 17.5 mph 76% 0 in
21:59 79.9 °F 71.6 °F 29.8 in NE 13.7 mph 20.7 mph 76% 0 in
22:04 79.7 °F 71.8 °F 29.8 in NE 13.7 mph 19.7 mph 77% 0 in
22:09 79.5 °F 72.1 °F 29.8 in NNE 14 mph 15 mph 78% 0 in
22:14 79.5 °F 72.1 °F 29.8 in NNE 14 mph 17.3 mph 78% 0 in
22:19 79.3 °F 72 °F 29.8 in NE 12.5 mph 18.4 mph 78% 0 in
22:24 79.2 °F 72.1 °F 29.8 in ENE 12.5 mph 20.7 mph 79% 0 in
22:29 79.2 °F 72.1 °F 29.8 in ENE 13.5 mph 19.2 mph 79% 0 in
22:34 79.2 °F 72.5 °F 29.8 in ENE 13.5 mph 18.4 mph 80% 0 in
22:39 79 °F 72.3 °F 29.8 in North 12.3 mph 17.3 mph 80% 0 in
22:44 79 °F 72.3 °F 29.8 in ENE 12.3 mph 16.8 mph 80% 0 in
22:49 79 °F 72.7 °F 29.8 in NE 11.4 mph 18.4 mph 81% 0 in
22:54 79 °F 72.7 °F 29.8 in NNE 11.4 mph 16.1 mph 81% 0 in
22:59 79 °F 72.7 °F 29.8 in NNE 10.2 mph 13.7 mph 81% 0 in
23:04 78.8 °F 72.5 °F 29.8 in NE 10.2 mph 17.3 mph 81% 0 in
23:09 78.6 °F 72.3 °F 29.8 in ENE 10.2 mph 15 mph 81% 0 in
23:14 78.6 °F 72.3 °F 29.8 in NE 10.2 mph 12.7 mph 81% 0 in
23:19 78.6 °F 72.3 °F 29.8 in NE 10 mph 12.7 mph 81% 0 in
23:24 78.6 °F 72.3 °F 29.8 in NNO 10 mph 11.5 mph 81% 0 in
23:29 78.6 °F 72.3 °F 29.8 in NE 9.2 mph 15 mph 81% 0 in
23:34 78.4 °F 72.1 °F 29.9 in NNE 9.2 mph 12.7 mph 81% 0 in
23:39 78.4 °F 72.1 °F 29.9 in NE 10.7 mph 14.5 mph 81% 0 in
23:44 78.4 °F 72.1 °F 29.9 in NE 10.7 mph 11.5 mph 81% 0 in
23:49 78.4 °F 72.1 °F 29.9 in ENE 8.7 mph 12.7 mph 81% 0 in
23:54 78.4 °F 72.1 °F 29.9 in NNE 8.7 mph 9.2 mph 81% 0 in
23:59 78.3 °F 72.3 °F 29.9 in Este 8.1 mph 13.8 mph 82% 0 in
Murcia-Puente Tocinos, España
Compliments of Weather Underground - 2.75 mb

La estación de MeteoMurcia.com, publica sus datos en los siguientes proyectos:

Weather Underground PWS IMURCIAP2 Meteoclimatic www.awekas.at

W3Counter
Web Analytics